{"data":{"norad_id":67681,"intl_designator":"2026-023H","name":"COSMOS 2607","alt_names":[],"object_type":"PAYLOAD","status":"ACTIVE","operator":null,"country":"CIS","launch_date":"2026-02-05","launch_site_code":"PLMSC","launch_vehicle":null,"mission":null,"orbit_class":"UNKNOWN","rcs_meters":null,"size_class":null,"mass_kg":null,"dimensions":null,"purposes":[],"wikipedia_slug":null,"has_3d_model":false,"image_url":null,"decayed_at":null,"tle_current":{"epoch":"2026-09-20T14:12:32.795136Z","epoch_age_seconds":81928,"freshness":"FRESH","line1":"1 67681U 26023H   26263.59204624  .00005627  00000+0  21409-3 0  9990","line2":"2 67681  96.6206 316.8644 0021950 136.8943 223.4021 15.26863321 34549","mean_motion":15.26863321,"eccentricity":0.002195,"inclination_deg":96.6206,"raan_deg":316.8644,"arg_perigee_deg":136.8943,"mean_anomaly_deg":223.4021,"bstar":0.00021409,"rev_number":3454,"period_min":94.310995633643,"perigee_km":470.13091436984,"apogee_km":500.26094593321,"semimajor_km":6863.3329301515,"source":"CELESTRAK","updated_at":"2026-09-21T09:00:16.778018Z"}}}